Location: Unspecified
(50.7693°N, 0.0000°E)
Time: 11:28:08
(UTC+00:00)

A-11 Canister half - Pass Details

Date: 26 June 2019
Orbit: 1526 x 1683 km, 47.3° (Epoch: 16 August)

Event Time Altitude Azimuth Distance (km) Brightness Sun altitude
Rises 05:25:40 0° 253° (WSW) 4,743 10.9 12.3°
Reaches altitude 10° 05:28:47 10° 251° (WSW) 3,742 10.5 12.8°
Maximum altitude 05:38:07 70° 171° (S) 1,613 9.4 14.2°
Drops below altitude 10° 05:47:20 10° 90° (E) 3,696 12.8 15.6°
Sets 05:50:22 0° 88° (E) 4,681 13.1 16.0°
